Wind_Speed
16 15 15 15 15 16 16 16 17 17 17 18 17 17 17 17 17 16 16 15 15 15 15 15 15 14 13 13 12 12 12 12 11 11 11 10 10 9 9 8 7 7 7 7 8 7 7 7 7 7 7 6 7 8 9 10 12 13 14 15 15 14 11 9 7 6 4 2 2 3 5 6 7 6 6 7 7 6 7 8 7 6 6 5 5 5 5 6
16 16 15 15 14 14 14 15 16 16 16 17 17 17 17 17 17 16 16 16 16 16 16 15 14 14 13 13 12 12 12 12 11 11 10 10 10 9 8 8 7 7 7 7 7 7 7 7 7 6 5 5 5 7 8 9 10 12 13 14 14 13 11 8 6 6 5 3 2 2 4 6 7 7 6 7 8 7 6 6 6 5 7 6 6 6 7 6
17 17 16 16 15 15 14 14 15 15 15 16 16 17 17 17 17 17 17 17 16 16 16 15 14 13 13 12 12 12 12 12 11 10 10 9 9 8 8 7 7 7 7 7 7 7 6 6 6 4 4 4 5 6 7 8 10 11 12 13 12 12 10 8 7 7 6 5 4 4 6 7 7 7 7 6 7 7 5 4 5 6 7 7 7 7 8 7
17 17 17 17 16 16 15 15 15 15 15 16 16 17 17 17 17 17 17 17 17 16 16 15 14 13 13 13 12 11 12 11 10 10 9 9 8 8 8 7 7 6 6 7 7 6 6 5 4 3 4 4 6 7 8 9 9 10 10 11 11 11 11 10 8 8 7 7 7 7 7 7 7 7 6 6 7 6 5 6 6 7 9 9 8 9 9 8
16 17 17 17 17 16 16 16 16 15 16 16 16 17 17 17 17 17 17 17 17 16 15 14 14 13 13 13 12 11 11 9 9 9 8 8 8 7 7 7 7 6 6 7 6 6 5 5 4 3 4 5 6 7 7 8 9 9 10 10 11 11 11 11 10 9 9 9 8 8 7 7 8 8 7 7 7 6 6 8 8 8 10 10 10 10 10 10
16 16 16 16 17 17 17 16 16 16 16 16 17 17 17 18 18 18 18 17 17 16 15 14 14 14 13 13 12 11 10 8 8 9 7 6 6 6 6 6 6 6 7 6 6 5 5 5 4 3 4 4 5 6 7 8 8 9 9 10 11 11 11 11 10 9 9 9 8 8 7 8 9 9 9 9 8 7 8 9 10 10 10 11 11 11 11 11
16 16 16 16 16 17 17 17 17 17 17 17 17 17 18 18 18 18 18 17 16 16 15 15 14 14 14 13 12 11 10 9 7 7 7 6 5 5 5 6 6 6 6 6 5 6 6 6 5 4 4 4 5 5 6 7 7 8 9 9 9 10 11 11 11 10 9 8 8 8 8 9 10 11 12 11 9 9 9 10 12 12 12 11 11 11 12 12
16 16 16 16 17 17 17 17 17 17 17 18 18 18 18 18 18 18 18 17 17 16 15 15 15 15 14 13 13 11 10 10 9 7 7 7 6 5 5 5 6 6 6 6 6 6 6 6 5 4 4 4 5 5 5 6 6 7 8 9 9 10 11 12 12 11 11 9 9 10 10 12 13 14 14 12 11 11 11 11 12 13 13 13 12 12 13 13
17 17 17 17 17 17 17 17 17 18 18 18 18 18 18 18 19 18 18 17 16 16 16 16 16 16 15 14 13 12 11 12 11 9 8 8 7 6 6 6 6 6 6 6 6 6 6 6 5 4 4 4 5 5 6 6 6 7 8 9 10 11 11 12 12 12 12 11 11 11 12 14 15 17 16 12 12 12 12 12 12 13 14 14 14 14 14 14
17 17 17 17 17 17 17 17 17 17 18 18 18 18 19 19 19 18 18 17 16 16 16 17 17 17 16 15 14 13 13 13 12 10 9 9 8 7 7 6 6 6 6 6 6 6 6 6 5 5 5 6 6 6 6 7 7 8 9 10 10 10 11 12 12 13 13 12 13 13 14 16 18 19 15 11 12 12 12 13 13 14 14 15 15 16 16 16
18 18 17 17 16 16 16 16 17 17 17 18 18 18 19 19 19 19 18 17 17 17 17 18 18 18 17 17 16 14 14 13 12 11 10 9 9 8 8 7 7 7 6 6 6 6 6 6 6 7 6 7 7 7 7 8 9 10 10 10 10 11 11 12 12 13 14 13 13 14 16 19 20 19 13 11 14 14 14 14 14 14 15 15 16 16 17 16
20 19 19 18 17 17 16 16 16 16 16 17 18 19 19 19 19 19 19 19 18 18 18 19 20 19 19 19 17 16 16 14 13 12 11 10 9 9 9 8 8 8 7 6 7 7 7 7 8 8 8 8 8 7 8 9 10 11 12 11 12 13 13 14 13 14 14 14 14 15 18 21 21 18 14 13 15 14 15 15 14 15 15 15 15 15 15 15
22 22 21 20 19 18 18 17 16 16 16 16 17 17 18 19 19 20 20 20 20 20 20 20 21 20 21 20 18 18 18 16 15 14 12 11 11 10 10 10 9 8 8 8 7 7 8 8 9 9 10 9 9 9 9 10 11 11 12 12 12 14 15 15 14 14 14 15 15 15 21 22 18 15 13 14 14 14 15 15 15 16 15 15 15 15 15 15
24 24 23 22 22 21 20 18 18 17 17 17 16 17 17 18 18 19 19 20 20 21 21 21 22 22 22 21 19 20 20 18 17 15 14 13 12 12 12 11 10 9 9 9 8 8 8 9 9 10 10 10 11 11 11 12 13 13 13 13 13 15 16 15 13 13 13 15 15 16 22 23 17 15 16 15 15 14 15 15 15 14 14 14 14 15 15 15
26 26 25 24 23 23 22 21 20 20 19 19 18 18 18 18 18 18 18 19 20 20 21 22 22 23 23 22 21 21 21 19 18 17 16 15 14 14 13 13 12 11 11 10 10 10 9 10 10 10 11 11 11 12 13 14 14 15 14 14 15 16 16 15 14 15 15 16 17 17 21 22 17 15 15 15 15 14 14 14 14 13 13 15 16 16 17 17
28 27 27 26 25 24 24 23 22 22 22 21 20 20 20 20 20 19 19 19 20 20 21 22 22 23 23 23 23 23 21 19 18 18 18 17 16 15 14 14 13 13 12 11 11 11 11 11 11 11 12 11 11 12 14 15 16 17 16 17 17 17 16 16 16 16 16 17 19 19 21 21 18 16 15 15 15 15 15 15 15 16 17 18 19 19 20 20
29 29 28 27 26 26 26 25 25 24 23 22 22 22 22 22 22 22 22 21 21 21 21 22 22 23 24 23 22 21 20 20 20 20 19 18 18 17 17 16 15 15 14 13 13 13 14 13 13 13 12 12 13 13 14 16 16 16 16 17 17 17 17 17 16 16 17 17 19 20 23 24 20 18 18 17 17 18 18 19 19 19 20 21 21 21 21 21
29 30 30 29 28 28 28 27 27 26 25 24 24 24 24 24 24 24 24 24 24 23 23 24 23 24 24 23 21 19 19 20 22 21 21 20 19 18 18 17 17 17 16 15 15 15 14 14 14 14 14 14 14 15 16 15 15 14 15 15 15 17 18 18 17 16 17 19 20 22 26 26 22 20 20 20 21 23 23 22 23 22 22 21 21 21 21 22
29 30 30 30 30 29 30 29 29 29 27 27 26 26 25 25 26 27 27 27 26 26 25 24 24 24 24 22 20 20 20 22 22 22 21 21 21 20 20 20 19 19 18 17 16 16 15 16 17 16 15 13 13 14 15 13 14 15 16 17 18 19 21 21 19 18 20 22 24 25 28 28 25 23 22 23 25 27 26 26 25 24 23 23 22 22 22 23
27 28 29 30 30 31 31 31 31 30 29 29 28 27 27 27 27 28 29 29 28 27 26 25 25 25 24 22 21 21 21 21 22 22 22 22 21 20 20 20 20 20 20 18 17 17 17 19 20 18 14 11 11 12 14 15 16 17 18 19 20 22 24 22 20 20 21 25 28 28 29 30 29 27 24 25 28 30 30 28 27 25 24 24 24 24 24 25
26 26 28 29 30 31 31 31 31 30 29 29 29 28 28 27 27 28 28 28 28 27 28 28 28 28 27 26 25 24 23 23 22 22 22 23 22 22 21 20 20 19 18 18 19 19 20 23 21 15 12 11 11 13 15 17 18 19 20 21 22 24 25 22 21 22 22 27 30 29 31 33 31 29 27 27 31 32 31 30 28 27 26 26 26 26 25 25
26 26 26 27 29 29 29 30 29 28 28 28 28 27 26 25 26 27 27 28 28 28 29 30 31 32 30 29 29 28 28 27 25 24 23 23 23 23 23 22 21 20 20 22 23 22 24 26 21 15 15 16 16 17 18 19 20 21 21 23 24 25 24 23 21 22 23 27 30 29 32 34 32 32 31 31 34 33 31 31 30 29 28 27 26 24 23 24
29 28 27 27 27 27 28 28 27 27 26 26 26 24 24 24 24 24 25 27 29 29 30 31 32 32 31 31 31 30 31 30 29 28 26 26 25 23 24 23 22 22 24 25 24 23 25 23 17 14 16 16 16 17 18 20 21 21 22 24 25 24 23 23 21 21 23 26 29 30 34 38 36 37 38 35 34 33 31 30 29 28 28 26 25 24 24 24
36 31 29 29 27 26 26 26 25 24 24 24 24 23 23 22 22 22 23 25 29 31 31 31 32 34 32 31 31 31 32 32 31 31 29 29 26 25 27 24 23 26 27 25 23 26 29 25 21 18 17 17 18 19 20 20 20 21 23 25 26 24 21 23 23 22 26 28 30 31 35 41 40 38 38 34 31 30 27 27 27 27 27 26 26 26 25 24
44 38 34 31 29 29 27 26 25 23 23 23 22 22 22 21 21 21 21 23 29 33 32 33 35 35 33 31 33 33 32 34 33 31 30 30 27 26 27 26 26 29 27 25 25 30 33 29 27 26 24 24 25 26 24 22 22 24 26 26 26 24 22 23 21 22 26 27 29 26 20 26 37 38 37 35 33 31 27 27 27 25 26 27 26 25 23 23
47 46 43 38 34 32 31 31 27 24 25 22 20 22 21 21 20 19 20 21 29 36 34 34 34 34 35 36 36 33 32 37 35 32 31 30 28 28 27 28 29 29 27 24 26 32 35 32 29 28 27 27 28 29 26 22 24 28 28 25 23 22 22 22 21 22 22 20 22 21 13 21 39 44 40 39 38 34 29 26 25 24 25 25 24 23 24 24
44 46 48 47 44 41 39 35 29 29 28 22 22 23 21 22 19 19 19 13 22 36 35 35 35 34 35 36 36 33 33 37 35 32 34 31 30 30 30 31 31 31 29 25 27 34 36 31 29 29 29 30 31 30 25 22 25 29 28 23 20 21 21 20 21 22 23 25 24 25 25 27 39 46 43 40 35 32 29 26 25 24 21 19 18 18 18 19
38 40 43 47 49 49 47 41 36 35 29 24 26 24 22 23 20 20 15 3 11 23 24 30 35 36 35 32 32 33 36 38 32 30 33 32 32 33 33 34 33 32 30 28 33 36 33 28 26 26 26 28 29 25 21 20 24 27 25 23 21 21 21 20 20 20 24 27 22 26 28 21 29 42 40 35 35 34 33 29 24 19 16 15 15 15 15 16
36 38 39 41 44 47 49 49 46 40 33 30 29 26 25 23 20 19 11 5 13 20 19 22 27 31 34 33 32 32 35 37 34 30 30 29 32 34 34 35 33 32 31 32 37 37 33 30 26 24 26 27 24 19 18 19 21 24 23 23 22 21 21 20 19 20 21 19 19 27 26 17 25 38 36 33 35 34 32 26 19 16 17 19 17 16 16 16
36 37 37 38 39 40 44 49 50 47 42 39 34 31 29 24 25 19 7 10 21 21 20 21 22 25 28 31 33 33 35 35 34 32 29 29 31 32 35 34 32 33 34 35 37 39 38 35 31 30 31 30 26 22 21 19 20 23 23 22 20 18 20 19 19 18 14 14 22 30 31 23 16 17 21 27 30 30 27 20 19 19 18 17 15 15 17 18
38 38 37 38 38 38 40 39 42 46 47 46 43 41 36 32 31 19 8 24 29 22 24 25 25 29 28 29 31 32 35 35 34 33 32 32 32 33 36 35 33 32 33 37 40 41 41 39 37 37 36 34 30 27 23 22 22 23 24 23 17 13 13 14 15 12 6 9 17 22 25 26 20 15 21 26 26 25 22 20 23 18 13 14 17 20 22 23
38 37 37 39 39 40 41 35 33 39 42 46 45 43 42 35 27 22 23 32 24 19 29 30 31 35 31 28 26 25 30 32 33 34 35 35 35 37 38 37 37 31 30 40 43 41 42 43 41 39 39 37 33 28 25 25 26 25 25 23 14 5 4 7 6 4 8 13 15 14 14 22 33 38 37 35 30 25 25 26 18 9 11 20 24 23 23 23
38 36 35 38 39 40 40 36 33 35 37 40 39 40 42 29 20 33 43 38 21 14 23 27 31 33 30 28 27 25 27 29 31 32 34 35 35 37 38 38 40 35 32 35 37 36 35 37 41 42 41 39 37 34 31 29 28 29 30 27 18 6 1 4 4 2 9 15 16 16 15 19 32 38 34 32 30 26 24 16 9 12 21 24 20 19 22 24
38 38 36 37 39 38 38 38 36 35 34 35 37 41 39 23 20 40 49 47 38 26 20 21 24 27 28 31 30 29 30 30 31 31 33 36 37 39 40 40 41 41 38 32 28 29 24 23 32 36 34 34 36 36 35 34 31 30 31 30 28 21 9 4 4 4 5 8 8 11 11 11 15 17 16 15 15 14 14 12 16 24 21 14 17 22 24 25
38 40 37 36 39 38 39 39 37 36 34 35 39 42 39 27 30 44 49 50 49 38 25 16 17 23 28 30 29 29 30 31 32 34 35 37 39 40 40 41 41 41 41 34 27 25 22 24 29 27 25 26 25 25 28 31 30 28 29 31 33 32 23 12 10 11 6 7 7 12 17 22 24 26 27 26 27 28 27 29 27 20 11 13 21 23 22 23
39 40 39 38 39 38 38 39 37 38 40 42 43 45 45 41 42 46 48 48 49 47 36 20 16 24 28 29 31 31 31 32 33 35 37 38 39 41 40 40 41 42 42 40 33 25 21 26 30 27 26 26 21 18 21 25 27 25 29 35 34 31 28 21 14 12 7 6 11 15 25 36 36 38 41 35 34 31 24 22 18 13 13 17 19 19 21 23
39 39 40 42 41 38 37 39 38 39 42 47 49 49 50 52 49 48 46 44 42 46 46 34 25 27 29 31 34 34 33 34 33 34 38 37 37 41 43 41 40 41 42 41 38 32 24 24 26 23 20 23 23 21 22 26 29 27 28 31 30 27 27 22 10 5 2 4 10 13 24 32 26 27 32 25 20 18 15 16 15 14 15 15 17 19 20 20
39 40 42 44 42 39 37 38 40 41 43 48 51 50 52 53 51 49 47 43 37 38 44 42 34 32 32 33 34 35 35 36 35 35 36 35 34 38 42 43 42 40 39 38 38 37 31 26 25 24 20 19 21 22 25 29 33 33 29 25 23 19 19 21 12 3 1 2 7 8 15 28 31 32 34 28 21 19 15 13 10 8 11 15 16 14 14 17
38 41 45 45 43 40 39 38 38 41 46 52 54 54 55 55 52 49 47 45 41 37 40 41 37 36 37 35 34 35 37 37 38 37 36 35 35 37 37 37 37 37 38 39 39 39 36 27 22 26 26 22 22 26 31 34 33 34 33 29 27 21 16 21 21 11 4 2 5 6 8 24 36 34 26 16 9 7 4 3 5 8 11 12 12 13 13 15
39 41 46 46 42 41 40 38 38 43 51 56 57 56 56 54 51 48 46 45 43 41 41 40 37 37 39 38 35 35 36 37 39 39 37 36 37 38 37 33 33 32 31 35 39 39 39 34 26 24 22 23 28 32 35 36 32 34 37 35 34 28 19 16 21 21 11 3 2 2 7 25 31 19 9 2 1 3 4 4 6 9 9 11 15 16 13 13
40 42 48 46 41 41 41 39 40 44 52 57 57 58 56 53 51 49 47 47 44 43 43 42 39 39 40 40 39 38 37 38 39 40 40 40 40 39 37 34 32 30 28 33 39 40 41 40 35 30 27 30 34 33 32 32 32 34 37 37 39 38 29 15 10 21 23 14 10 4 7 33 37 21 14 10 5 6 6 5 7 7 9 12 13 13 14 17
40 44 48 45 41 41 41 42 42 43 50 54 53 54 56 55 54 50 48 47 46 45 44 42 40 40 40 40 41 41 40 39 41 42 42 43 43 41 37 33 30 28 29 31 34 37 40 40 36 36 37 34 30 28 28 28 31 34 36 38 40 40 40 27 12 18 26 26 26 11 7 37 46 29 20 12 8 11 8 7 8 10 13 12 12 18 20 20
41 45 47 44 40 39 40 43 44 45 50 51 50 52 54 55 55 53 49 48 47 46 45 44 42 41 41 41 40 40 41 40 40 42 42 42 44 41 38 37 32 27 28 29 30 33 37 38 34 32 33 31 27 29 31 28 30 37 41 42 40 39 42 38 29 25 22 27 30 12 7 37 43 26 17 13 14 18 14 10 12 15 17 15 19 27 24 19
39 43 45 43 40 40 42 44 45 47 49 48 49 53 53 53 55 55 53 50 49 47 45 45 44 43 42 42 40 40 40 39 39 42 43 43 43 41 39 41 39 33 31 30 30 31 34 38 35 22 13 15 17 20 27 32 34 37 40 40 42 43 40 38 38 30 21 30 34 16 14 39 35 19 19 17 16 18 14 14 18 20 22 25 31 30 23 21
37 40 42 41 39 41 45 48 48 48 47 47 50 53 52 54 55 55 54 52 50 48 46 45 44 43 44 44 43 41 39 38 38 40 42 43 43 43 42 43 42 40 36 32 31 31 31 36 36 25 13 11 13 16 27 38 40 39 41 40 42 44 41 41 40 29 24 35 35 27 33 47 36 25 27 24 20 17 16 20 26 29 34 36 34 29 24 22
37 39 39 37 38 41 46 48 49 48 47 46 49 52 51 52 54 53 52 53 51 50 49 48 46 44 45 46 46 44 43 42 40 39 41 41 42 43 43 42 42 41 39 36 35 34 32 34 38 38 35 33 34 33 32 34 34 36 41 43 44 44 44 44 39 35 36 31 28 40 52 52 48 45 41 37 32 27 26 30 35 39 40 36 32 30 27 24
37 40 40 36 35 38 44 46 47 49 51 48 48 51 52 53 53 51 50 51 49 49 49 49 47 45 45 46 45 45 46 45 43 43 42 40 39 39 40 42 43 43 42 40 39 38 38 37 38 41 43 44 45 41 34 30 28 29 32 36 40 42 45 47 44 46 45 28 28 50 53 47 56 58 49 48 46 40 39 40 42 43 41 37 35 34 31 28
42 40 42 41 38 38 43 47 47 49 52 51 49 48 51 53 52 51 52 51 48 48 47 47 47 47 47 47 45 45 46 44 43 46 45 42 41 39 39 42 42 42 42 41 41 41 40 38 39 40 41 43 44 42 39 36 32 29 27 29 32 35 42 49 51 54 50 38 42 56 46 43 58 58 49 50 47 44 46 46 46 46 43 41 38 36 35 33
46 44 43 44 43 41 40 44 47 49 51 51 50 49 48 50 52 52 52 51 49 49 47 47 48 49 50 50 47 46 44 42 42 46 47 46 44 41 40 42 43 43 43 43 43 42 40 39 40 39 39 43 44 43 43 41 36 33 31 30 31 33 39 45 48 50 52 51 56 57 46 47 58 56 51 49 45 46 49 48 48 47 44 42 39 37 36 33
45 47 47 45 46 46 41 39 44 48 49 49 52 54 53 51 52 52 52 51 50 49 49 50 51 50 48 48 49 49 48 46 45 47 45 43 44 44 43 43 44 45 45 45 44 43 41 39 41 39 37 41 46 45 44 44 41 39 36 34 36 38 40 43 44 46 50 54 57 56 52 56 60 56 51 48 47 49 49 47 47 44 40 39 38 36 35 33
45 45 48 47 47 50 46 42 42 45 48 48 49 53 55 55 55 54 52 53 53 51 50 51 51 50 47 47 49 48 46 46 45 45 46 45 44 45 46 45 44 44 44 43 41 41 41 39 40 37 32 40 49 45 42 44 41 40 41 43 46 47 44 44 45 44 47 51 52 53 56 60 59 54 51 51 50 49 47 44 42 38 36 36 36 35 34 32
48 46 46 46 48 51 51 48 43 41 44 48 49 49 51 53 55 54 50 48 49 50 50 50 48 46 46 49 50 46 41 40 40 42 48 50 47 46 45 43 43 43 42 41 39 41 43 42 42 36 29 37 46 40 38 38 27 29 44 52 53 52 46 44 45 46 46 46 47 52 57 59 56 53 53 53 50 47 45 39 35 33 33 33 34 33 32 31
Wind_Direction
197 198 199 200 202 202 201 201 200 201 201 201 201 201 202 201 200 200 198 197 194 191 188 186 187 189 190 194 197 199 203 208 210 212 214 214 213 213 215 215 216 218 220 224 224 218 213 213 212 208 202 201 201 204 208 207 208 211 216 222 227 232 234 223 210 205 209 209 211 229 241 253 258 260 269 273 276 275 271 269 268 270 268 260 253 261 269 273
198 199 199 201 203 204 204 202 201 200 199 199 199 199 199 200 199 198 196 194 191 189 188 188 190 193 196 201 203 206 212 215 214 216 218 217 216 217 217 219 220 221 222 224 222 217 211 211 212 207 199 198 204 208 208 209 209 210 216 223 228 234 236 226 208 209 214 202 202 246 257 260 259 259 266 275 279 277 272 269 270 271 266 261 261 270 273 271
200 200 200 201 203 203 204 203 201 199 198 197 197 197 197 197 196 196 194 191 190 190 190 191 194 199 203 207 210 214 218 220 219 218 219 220 221 222 222 221 221 220 220 220 219 214 211 213 215 209 209 213 217 219 214 214 214 213 216 220 225 230 229 221 210 208 211 211 224 255 266 261 257 259 261 267 269 267 269 267 263 261 261 261 267 275 273 268
201 201 201 201 201 201 201 200 199 198 196 195 194 194 194 194 194 193 192 191 191 192 193 195 200 205 209 213 215 218 221 224 223 220 222 222 222 224 222 219 219 219 217 219 218 215 212 212 215 221 235 237 232 230 224 222 220 218 220 219 220 222 221 218 215 215 219 227 241 255 259 256 255 257 257 254 255 260 264 258 252 250 254 259 265 272 273 269
199 199 199 198 197 197 196 196 196 195 194 194 193 193 192 192 192 192 192 193 194 195 197 201 206 210 214 216 217 219 221 225 227 224 223 221 221 222 219 220 220 217 217 219 218 218 220 216 214 233 249 251 244 238 230 229 228 226 227 223 220 219 218 219 220 223 229 239 246 249 248 249 250 253 252 244 243 252 259 259 255 250 252 258 262 268 271 271
194 194 195 195 194 193 194 193 193 193 194 194 194 193 193 193 193 194 195 196 198 200 203 206 210 213 216 218 220 220 216 219 227 223 221 217 216 219 220 220 217 215 216 217 217 216 220 222 216 226 244 248 247 241 233 231 229 227 231 232 228 225 221 222 229 233 240 245 244 242 243 246 251 255 255 252 249 253 257 263 264 259 256 257 261 265 268 270
193 193 193 193 194 193 194 193 193 194 195 196 196 196 195 195 196 197 198 200 202 206 209 211 212 214 217 220 222 221 214 214 218 213 210 205 205 215 216 216 216 214 214 214 216 215 219 224 219 218 227 233 237 235 231 230 228 226 230 231 230 231 231 233 240 246 251 251 247 249 252 257 260 261 262 264 265 261 258 260 263 265 264 262 263 264 266 267
198 196 195 195 195 196 196 197 197 197 198 199 199 199 199 199 200 201 203 205 208 211 214 214 213 214 216 220 222 220 216 213 211 202 199 206 216 222 222 225 225 222 221 218 220 224 228 229 222 217 217 224 232 236 235 231 229 228 228 228 226 230 236 242 248 255 259 258 257 260 264 266 267 268 270 274 273 270 267 262 260 263 265 266 265 263 264 264
201 200 200 200 199 199 199 200 201 201 201 202 201 202 202 203 204 206 209 212 216 218 219 217 215 215 217 220 221 220 219 217 215 212 212 220 227 231 235 235 231 232 230 226 228 232 236 237 235 227 221 229 234 238 244 239 233 232 230 230 228 229 235 243 249 255 259 261 263 265 267 268 269 272 275 279 279 276 270 265 261 260 262 265 266 264 262 263
203 202 201 202 202 202 202 203 205 205 205 204 204 204 205 207 209 212 215 219 222 224 224 221 217 218 219 220 220 219 221 221 219 221 224 228 232 234 236 236 235 235 234 234 236 236 239 244 246 241 235 239 241 244 248 244 240 239 238 238 238 236 238 242 245 250 256 259 262 264 265 267 267 269 276 284 280 275 268 265 264 264 264 265 266 266 266 266
208 205 204 203 202 202 203 205 207 209 210 210 210 210 211 213 216 219 223 226 229 230 229 226 222 221 221 222 221 219 223 224 222 225 228 230 234 235 236 239 238 236 238 238 238 239 243 242 244 246 243 242 244 248 252 250 248 248 248 249 250 248 244 244 244 249 254 256 260 263 264 264 264 268 280 283 273 270 268 267 265 266 268 268 268 268 268 268
212 211 210 208 207 206 205 206 207 210 212 214 216 218 219 221 224 227 230 233 235 235 232 229 226 225 224 225 222 221 225 224 222 224 227 231 234 237 239 239 239 241 242 241 241 243 245 245 245 245 246 249 248 248 253 255 255 255 255 255 256 258 255 249 245 246 252 256 258 264 266 263 264 273 281 273 267 266 266 268 268 269 269 268 267 267 267 268
217 216 215 215 214 213 213 212 213 214 214 217 219 221 224 226 229 231 234 237 239 238 235 231 229 229 229 228 224 225 228 226 226 227 228 231 234 238 241 242 243 245 244 245 246 245 246 247 248 247 250 253 253 252 257 261 262 261 262 261 260 262 259 255 252 250 252 255 256 259 264 266 268 276 275 266 264 264 266 270 271 270 269 268 267 267 267 268
223 221 220 219 219 219 219 220 221 223 223 223 224 226 228 229 231 233 235 236 238 237 235 232 232 232 233 231 226 228 230 229 230 231 233 235 237 239 242 245 247 247 247 247 247 248 249 250 251 252 252 254 256 259 262 264 264 264 265 266 263 261 262 264 260 256 254 256 257 255 261 269 272 270 266 264 264 264 268 270 270 269 267 267 268 269 269 269
226 226 226 225 224 223 223 223 226 228 230 231 232 233 234 234 234 234 235 235 236 235 234 233 233 234 236 233 230 231 232 233 234 236 237 238 240 241 244 246 247 249 249 250 252 253 253 253 254 254 255 256 258 260 262 264 265 266 266 266 264 261 264 267 263 259 258 258 258 253 259 270 272 264 263 263 262 263 266 268 270 270 269 270 272 272 272 271
228 228 228 229 229 229 228 228 229 231 233 235 237 239 239 240 239 238 238 236 235 234 233 234 234 236 238 235 233 233 233 236 237 238 240 241 242 243 244 246 248 251 252 253 255 255 256 257 257 255 257 259 259 262 264 265 265 265 266 266 267 268 268 267 263 262 263 261 259 255 256 266 271 269 267 264 263 263 264 267 272 275 275 275 274 275 275 276
229 229 230 231 231 232 233 233 234 235 237 238 240 242 242 243 242 242 241 239 238 237 236 236 235 237 239 236 234 235 235 238 239 240 241 241 242 243 245 247 249 252 253 253 255 257 258 257 257 256 257 258 260 261 259 263 268 271 272 272 272 272 270 266 264 265 266 262 261 260 259 264 268 270 270 268 266 266 268 272 276 277 275 274 275 277 279 280
231 231 231 231 233 234 235 236 237 239 240 242 244 245 245 245 244 243 243 242 241 239 238 237 236 239 241 238 237 238 237 238 239 239 240 241 242 244 246 248 249 251 252 254 256 255 254 254 256 255 255 257 259 259 258 268 283 284 280 277 273 269 267 267 269 270 269 266 263 262 264 268 270 270 271 272 271 271 273 276 277 275 275 276 279 280 281 280
231 233 233 233 234 235 237 239 241 242 243 245 246 246 246 246 245 244 243 242 241 240 240 241 240 242 245 242 241 240 237 238 239 239 240 242 243 245 247 248 248 249 251 253 252 250 250 255 254 252 256 265 271 272 270 275 282 279 274 270 267 267 267 268 272 272 272 271 268 265 268 273 274 271 271 272 273 274 274 275 277 278 279 281 282 282 281 280
232 233 234 234 234 236 238 240 242 244 245 246 246 246 245 244 245 246 245 245 244 244 246 247 246 246 247 245 243 241 239 239 240 241 242 242 243 244 243 244 245 246 247 246 246 250 254 255 253 256 267 277 278 274 268 266 265 264 266 266 266 268 269 271 274 273 271 270 270 272 273 275 276 276 275 272 271 272 274 277 280 281 282 283 283 282 281 280
233 233 234 234 235 236 236 238 241 242 243 244 244 244 244 244 246 247 248 248 247 246 246 247 247 247 247 246 245 244 244 242 241 241 241 241 242 241 240 241 241 241 242 241 246 254 256 253 254 263 274 271 265 262 261 262 261 263 265 266 266 267 270 275 274 272 271 270 273 276 276 276 278 279 275 269 268 272 277 279 280 281 281 281 282 282 282 280
234 234 233 233 234 234 235 237 238 238 239 240 241 242 244 244 245 247 249 249 247 245 245 245 245 246 247 247 247 247 247 246 245 244 244 244 242 242 243 244 244 245 245 247 251 254 252 254 261 269 267 262 261 262 263 262 261 262 262 264 265 268 274 278 276 275 273 273 277 280 278 277 278 276 272 269 270 275 279 279 280 280 279 280 281 282 280 276
234 234 232 231 231 232 234 235 236 237 237 237 237 238 241 243 245 247 249 251 249 245 244 244 245 246 246 247 248 248 250 250 249 248 248 248 247 246 248 247 248 249 248 249 250 248 250 260 269 262 255 257 260 261 260 261 261 262 263 265 268 273 277 278 280 282 279 277 280 282 281 278 276 274 273 273 274 277 278 278 278 277 277 280 281 280 278 277
232 233 232 231 229 229 230 232 234 235 236 237 237 236 238 240 243 246 250 254 252 246 244 244 245 245 244 245 247 247 249 249 249 249 248 249 249 248 249 250 249 248 248 251 252 253 257 265 266 255 253 257 260 261 259 259 262 265 267 267 271 277 280 280 283 283 281 279 280 283 285 281 278 278 278 279 278 277 276 276 276 276 279 282 282 282 282 281
232 230 231 231 231 230 229 231 231 231 235 237 237 238 238 239 242 246 251 258 259 250 244 244 244 245 243 243 243 243 245 246 245 245 246 248 248 248 249 248 245 246 248 248 250 256 259 260 258 257 258 259 260 261 260 261 265 267 267 267 273 278 278 279 280 279 279 278 278 284 288 284 284 284 283 285 283 280 279 276 276 278 282 284 285 285 283 280
234 231 229 229 230 232 232 232 229 230 234 234 236 239 240 241 243 246 251 264 266 256 248 245 244 244 242 239 240 239 242 246 243 242 243 243 242 244 245 244 243 245 245 245 249 256 258 255 255 256 257 257 257 257 256 259 263 264 266 270 275 277 276 276 275 272 272 273 278 282 282 285 287 287 285 285 285 284 282 279 279 285 288 288 287 284 279 275
237 236 233 231 231 233 235 234 233 233 234 233 236 239 240 243 243 247 252 271 271 259 252 247 242 242 240 239 239 235 237 244 242 238 240 240 238 239 240 240 241 242 241 239 244 252 256 254 253 255 255 254 253 254 257 259 258 261 268 275 277 277 277 277 273 268 266 271 275 276 277 281 283 284 286 286 285 286 285 285 289 292 293 292 290 284 276 271
237 238 238 236 235 235 236 236 235 234 234 232 236 239 239 240 242 244 242 255 268 257 251 245 241 241 240 238 238 233 237 245 243 238 239 237 236 238 239 241 243 244 244 240 243 252 258 257 256 256 254 253 254 257 260 258 257 262 271 276 275 275 275 273 271 264 267 273 269 268 274 275 274 279 284 285 285 286 287 290 294 296 297 298 294 286 279 276
236 236 238 239 239 238 237 236 233 232 233 232 233 235 234 235 236 233 222 212 248 250 245 239 236 237 237 235 234 233 236 241 240 240 239 234 234 236 238 242 242 242 243 243 248 254 257 256 256 254 252 253 256 258 254 250 256 263 270 272 271 272 272 271 269 264 267 268 259 263 266 263 276 279 277 279 281 285 291 293 292 297 302 299 293 288 285 284
236 237 238 239 241 240 238 236 234 232 232 233 234 233 232 231 222 210 183 223 239 243 238 234 234 235 234 231 230 230 231 234 235 236 234 232 233 234 236 239 238 238 239 241 246 249 251 254 254 251 252 255 255 253 248 246 249 255 260 263 265 267 266 265 264 264 270 264 258 264 262 256 272 285 276 277 281 287 291 289 291 300 298 292 292 294 294 292
238 238 237 238 239 242 241 240 238 236 234 234 233 232 230 225 213 193 200 236 241 245 236 232 236 237 237 234 231 230 229 230 232 230 228 228 228 227 229 230 229 231 235 238 242 245 246 248 250 250 252 253 253 251 249 246 244 245 249 252 254 259 262 261 259 253 253 265 264 267 264 251 242 254 271 275 281 286 284 286 295 295 281 288 302 300 296 293
238 236 235 235 236 239 241 241 240 241 239 233 232 229 222 216 206 198 220 234 242 249 238 236 239 238 237 235 233 234 233 231 231 229 228 228 227 229 231 231 229 225 229 236 239 242 245 246 248 249 250 250 250 249 246 243 239 236 238 238 233 241 279 255 247 235 234 254 264 260 254 244 246 258 268 269 271 272 276 286 288 259 274 301 303 297 292 290
237 237 236 234 235 236 239 241 237 238 238 233 233 229 217 207 205 211 219 224 226 237 236 236 238 237 234 230 227 228 230 232 234 231 229 227 229 234 236 236 234 230 233 239 238 239 245 248 246 245 247 247 246 244 242 241 238 235 232 226 215 190 64 254 252 295 257 260 263 250 247 252 258 267 272 271 272 268 268 270 245 262 294 301 294 289 290 290
236 237 236 235 236 236 237 239 236 237 237 231 231 225 212 205 215 218 221 224 225 231 236 231 228 227 228 231 231 228 225 228 231 230 228 224 224 230 232 232 233 233 236 241 242 238 240 249 247 244 247 249 249 248 249 250 249 247 241 233 226 216 202 213 224 222 259 290 273 232 229 247 258 270 276 278 277 265 260 260 269 287 295 289 289 294 293 292
235 235 236 236 235 235 235 235 235 237 236 233 229 217 206 205 216 221 225 226 224 228 233 226 212 211 217 224 230 228 225 226 226 225 225 224 225 229 231 231 231 232 232 232 237 236 235 248 252 249 249 251 250 249 249 246 246 248 240 229 227 228 227 239 250 245 266 322 279 226 235 255 263 268 270 273 275 274 278 281 282 288 283 283 296 297 291 291
234 234 235 235 235 234 234 232 232 234 236 236 224 211 213 222 225 229 233 231 228 228 228 220 200 204 211 214 219 221 220 222 223 221 222 225 229 232 233 234 233 232 232 230 230 230 232 247 253 251 249 249 244 239 234 231 233 234 225 220 224 230 232 238 255 267 275 291 268 243 252 265 271 275 275 273 275 278 280 278 279 288 291 295 301 296 291 291
235 234 234 234 235 235 234 234 232 231 236 234 221 215 225 232 233 236 238 237 234 230 229 225 212 210 213 212 215 216 215 217 219 219 221 223 228 232 232 233 233 233 235 234 232 233 237 248 253 250 248 246 241 234 227 225 227 225 222 224 228 230 231 229 241 296 273 261 270 249 258 271 272 274 276 274 276 282 278 275 282 290 297 303 305 301 296 290
237 236 235 233 234 234 234 235 232 231 235 232 226 229 235 236 236 236 236 236 234 230 229 228 224 223 222 218 218 215 211 213 215 217 221 221 227 234 233 233 233 232 235 234 233 236 241 248 254 250 242 240 237 229 221 221 224 227 230 231 224 219 220 214 210 257 210 227 286 266 269 277 268 266 277 282 282 281 276 277 282 284 299 309 311 312 303 293
239 239 237 232 232 233 233 234 233 234 232 224 225 233 237 240 241 237 235 236 235 233 231 230 229 228 227 226 225 218 212 214 217 217 219 221 228 237 235 233 234 233 233 233 232 236 238 241 250 248 239 233 229 224 220 220 218 222 229 230 226 223 217 208 208 218 206 177 273 293 296 278 272 275 285 290 286 277 257 235 264 286 300 308 318 317 303 298
239 241 239 234 232 232 233 234 234 235 230 223 225 232 235 239 240 235 235 238 237 237 237 236 233 229 230 229 227 223 218 218 221 221 223 224 230 238 238 233 231 231 230 232 234 235 236 236 242 243 234 224 225 227 229 230 225 222 223 223 223 219 212 215 219 220 218 173 214 266 282 269 272 282 286 285 333 264 187 189 269 293 293 299 314 311 295 295
242 242 241 237 233 231 233 234 231 231 230 226 229 234 235 238 240 236 235 235 234 236 239 241 238 233 234 232 228 228 225 223 224 225 228 230 232 238 241 239 238 234 227 226 228 229 230 232 235 236 231 226 229 236 240 240 238 236 234 231 229 221 211 208 220 221 219 223 225 192 274 271 271 271 267 275 289 246 214 235 281 293 285 294 309 304 293 293
241 242 242 241 236 231 232 235 232 231 231 231 235 237 235 237 240 239 236 234 232 233 235 239 239 236 237 239 237 233 227 226 227 227 230 233 236 241 244 246 245 238 230 226 227 227 227 229 233 235 238 240 241 243 243 240 238 238 238 238 235 226 217 209 209 220 215 222 235 225 269 270 268 269 267 260 233 236 250 270 282 295 293 289 293 299 304 299
240 241 243 244 241 235 233 236 237 234 233 235 240 241 239 239 239 239 238 235 233 233 234 236 238 238 238 239 240 236 231 229 230 231 234 236 238 242 244 245 245 236 227 225 227 225 221 223 227 233 242 246 243 243 243 240 234 229 230 232 230 228 226 224 228 233 220 220 228 214 249 261 263 265 256 237 239 257 264 262 278 296 291 280 292 303 306 297
241 243 243 245 244 240 235 235 237 236 235 236 237 237 238 240 240 240 239 237 234 234 235 237 239 239 238 236 234 234 235 233 231 234 236 236 240 243 241 240 239 234 227 226 228 224 217 217 219 222 241 248 242 240 237 233 229 228 231 232 232 233 231 227 229 230 233 235 226 202 238 253 255 260 254 250 259 263 262 267 281 290 286 289 299 304 301 292
238 242 243 243 242 242 239 237 237 239 239 238 236 236 237 238 240 241 241 240 240 240 240 241 243 242 241 239 235 234 233 232 234 236 234 233 238 243 242 238 236 234 234 233 232 228 225 223 219 212 208 221 222 223 229 229 226 227 231 231 231 232 227 224 225 221 233 242 228 214 237 248 249 254 259 263 266 263 265 272 279 288 292 297 301 299 295 287
234 236 240 240 239 240 242 241 238 239 241 240 237 238 239 240 242 244 242 242 244 245 245 245 247 245 242 241 240 237 235 233 235 238 237 237 239 240 240 240 237 234 234 234 233 232 232 231 228 225 225 229 233 234 238 238 229 228 234 234 231 231 228 226 223 220 228 236 231 233 241 248 252 253 255 261 265 265 269 273 281 290 295 296 294 291 290 282
230 231 233 234 234 234 237 239 237 235 238 239 238 239 241 242 243 244 243 242 244 246 246 245 245 242 239 240 239 238 238 237 235 237 238 240 241 239 238 239 238 234 230 229 230 231 229 226 229 233 236 239 244 246 247 248 244 242 243 240 236 234 230 224 223 228 230 225 239 247 244 247 257 258 257 262 266 267 272 278 284 289 292 291 287 284 284 281
228 230 229 230 232 231 231 235 238 237 237 236 236 239 241 241 241 241 242 244 243 242 241 239 240 241 241 243 240 238 238 237 236 238 239 238 238 237 236 238 238 235 231 226 225 227 227 227 231 234 237 242 245 248 249 251 253 254 251 248 245 239 232 227 229 234 230 224 242 252 247 248 259 264 263 265 270 274 278 283 286 288 290 289 285 282 282 282
229 231 228 228 234 236 231 231 234 236 237 236 235 237 238 240 241 241 243 244 240 238 237 236 240 243 245 245 241 236 236 234 234 239 240 237 236 235 233 234 234 234 233 230 228 228 228 231 236 236 238 243 245 247 250 251 252 253 251 252 251 246 242 240 240 241 235 233 245 253 251 253 261 266 266 269 274 277 281 284 286 288 289 287 285 284 284 283
230 232 231 229 233 236 235 234 232 231 233 233 232 234 236 238 241 242 243 242 238 237 236 237 242 245 247 246 241 239 242 243 243 245 243 238 235 234 232 231 231 230 231 230 229 230 229 231 237 238 237 243 245 246 248 250 251 253 253 252 250 248 246 243 244 243 236 235 243 249 251 256 261 263 266 271 275 277 281 285 287 287 285 283 284 284 283 284
234 234 233 235 237 236 236 239 238 236 234 230 228 231 234 237 241 243 244 244 243 243 241 241 244 245 246 243 240 241 246 248 250 253 251 245 244 245 240 235 233 231 230 231 229 230 231 232 235 234 232 240 245 245 246 248 250 251 252 252 249 245 242 240 242 242 237 237 242 244 247 255 262 266 271 276 278 280 284 286 286 283 280 279 280 280 280 280
239 238 235 237 241 239 238 238 237 239 239 236 233 232 231 234 238 240 241 243 244 245 246 247 248 245 243 241 241 246 250 253 257 260 253 248 250 253 248 242 242 239 237 238 235 233 234 234 234 231 227 236 243 244 245 245 244 244 247 251 250 245 242 242 243 244 243 241 241 241 248 260 269 273 276 279 282 285 287 287 284 279 275 274 274 274 274 273
Height
3142 3143 3144 3146 3147 3148 3149 3150 3151 3153 3154 3156 3157 3158 3160 3161 3162 3164 3165 3166 3167 3168 3169 3170 3171 3171 3172 3173 3174 3174 3175 3175 3176 3177 3177 3177 3178 3178 3178 3179 3179 3180 3180 3180 3181 3182 3182 3182 3183 3183 3183 3184 3184 3184 3185 3185 3185 3186 3186 3186 3186 3186 3186 3187 3188 3188 3189 3189 3189 3190 3190 3190 3190 3190 3191 3190 3191 3191 3191 3191 3191 3191 3191 3191 3192 3192 3192 3192
3141 3143 3144 3145 3146 3148 3149 3150 3151 3152 3153 3155 3156 3157 3159 3160 3162 3163 3164 3165 3166 3168 3169 3169 3170 3171 3172 3173 3173 3174 3174 3175 3176 3176 3177 3177 3177 3178 3178 3179 3179 3179 3180 3180 3181 3181 3182 3182 3182 3182 3183 3183 3184 3184 3184 3185 3185 3185 3185 3185 3185 3186 3186 3187 3187 3188 3188 3189 3189 3189 3190 3190 3190 3190 3190 3190 3190 3190 3190 3190 3191 3191 3191 3191 3191 3191 3191 3191
3141 3142 3143 3144 3146 3147 3148 3150 3151 3152 3153 3154 3155 3157 3158 3160 3161 3162 3163 3165 3166 3167 3168 3169 3170 3171 3172 3172 3173 3174 3174 3175 3175 3176 3176 3177 3177 3177 3178 3178 3178 3179 3179 3180 3180 3181 3181 3181 3182 3182 3182 3183 3183 3183 3184 3184 3184 3185 3185 3185 3185 3185 3186 3186 3187 3187 3188 3188 3188 3189 3189 3189 3189 3189 3189 3189 3189 3189 3190 3190 3190 3190 3190 3190 3190 3190 3191 3191
3140 3141 3142 3144 3145 3146 3148 3149 3150 3151 3153 3154 3155 3156 3158 3159 3160 3162 3163 3164 3165 3167 3168 3169 3169 3170 3171 3172 3172 3173 3173 3174 3175 3175 3176 3176 3177 3177 3177 3178 3178 3178 3179 3179 3180 3180 3180 3181 3181 3181 3182 3182 3183 3183 3183 3183 3184 3184 3184 3185 3185 3185 3185 3186 3186 3187 3187 3187 3188 3188 3188 3188 3188 3188 3189 3189 3189 3189 3189 3189 3190 3190 3190 3190 3190 3190 3190 3190
3139 3140 3141 3143 3144 3145 3147 3148 3149 3151 3152 3153 3155 3156 3157 3158 3160 3161 3162 3164 3165 3166 3167 3168 3169 3170 3170 3171 3172 3172 3173 3174 3174 3175 3175 3176 3176 3177 3177 3177 3178 3178 3178 3179 3179 3179 3180 3180 3180 3181 3181 3182 3182 3182 3183 3183 3183 3184 3184 3184 3184 3184 3185 3185 3185 3186 3186 3187 3187 3187 3187 3187 3187 3187 3188 3188 3188 3189 3189 3189 3189 3189 3189 3189 3189 3189 3189 3189
3139 3140 3141 3142 3143 3144 3146 3147 3149 3150 3151 3153 3154 3155 3157 3158 3159 3160 3162 3163 3164 3165 3166 3167 3168 3169 3170 3170 3171 3172 3173 3173 3173 3174 3175 3175 3176 3176 3176 3177 3177 3177 3178 3178 3179 3179 3179 3179 3180 3180 3181 3181 3182 3182 3182 3183 3183 3183 3183 3183 3183 3184 3184 3184 3185 3185 3186 3186 3186 3186 3186 3186 3186 3186 3186 3187 3187 3188 3188 3188 3188 3188 3188 3188 3188 3188 3188 3188
3138 3139 3140 3141 3143 3144 3145 3146 3148 3149 3151 3152 3153 3155 3156 3157 3158 3160 3161 3162 3163 3164 3166 3167 3167 3168 3169 3170 3170 3171 3172 3173 3173 3173 3174 3175 3175 3176 3176 3176 3177 3177 3177 3178 3178 3178 3178 3178 3179 3180 3180 3181 3181 3181 3182 3182 3182 3182 3183 3182 3183 3183 3183 3184 3184 3184 3185 3185 3185 3185 3185 3185 3185 3185 3185 3185 3186 3187 3187 3187 3187 3187 3187 3187 3187 3187 3187 3187
3137 3138 3139 3141 3142 3143 3144 3146 3147 3148 3149 3151 3152 3154 3155 3156 3158 3159 3160 3161 3162 3163 3165 3165 3166 3167 3168 3169 3169 3170 3171 3172 3172 3173 3174 3174 3175 3175 3175 3176 3176 3176 3177 3177 3177 3177 3177 3178 3178 3179 3179 3180 3180 3181 3181 3181 3182 3182 3182 3182 3182 3182 3183 3183 3183 3183 3183 3184 3184 3184 3184 3184 3183 3183 3183 3184 3185 3185 3185 3186 3186 3185 3185 3185 3186 3186 3186 3186
3137 3138 3139 3140 3141 3143 3144 3145 3146 3147 3148 3150 3151 3153 3154 3155 3156 3158 3159 3160 3162 3163 3164 3164 3165 3166 3167 3168 3168 3170 3170 3171 3172 3172 3173 3174 3174 3174 3175 3175 3175 3176 3176 3176 3176 3176 3176 3177 3177 3178 3179 3179 3180 3180 3180 3181 3181 3181 3181 3181 3182 3182 3182 3182 3182 3182 3182 3183 3183 3183 3183 3182 3182 3182 3182 3183 3183 3183 3184 3184 3184 3184 3184 3184 3184 3184 3184 3184
3136 3137 3138 3139 3140 3141 3143 3144 3145 3146 3148 3149 3150 3152 3153 3154 3155 3157 3158 3159 3160 3162 3162 3163 3164 3165 3166 3166 3167 3169 3169 3170 3171 3172 3172 3173 3173 3174 3174 3174 3175 3175 3175 3175 3176 3176 3176 3176 3177 3178 3178 3179 3179 3179 3180 3180 3180 3180 3180 3181 3181 3181 3182 3182 3182 3182 3181 3182 3182 3182 3182 3181 3181 3180 3181 3182 3182 3182 3182 3182 3182 3182 3182 3182 3182 3182 3182 3182
3135 3136 3137 3138 3139 3140 3141 3143 3144 3145 3147 3148 3150 3151 3152 3153 3154 3155 3157 3158 3159 3160 3161 3162 3163 3164 3164 3165 3166 3168 3168 3169 3170 3170 3171 3172 3172 3173 3173 3173 3174 3174 3174 3175 3175 3175 3175 3176 3176 3177 3178 3178 3178 3179 3179 3179 3179 3179 3180 3180 3180 3180 3181 3181 3181 3181 3181 3181 3181 3181 3180 3179 3179 3178 3180 3181 3180 3180 3180 3180 3180 3180 3180 3180 3180 3180 3180 3180
3133 3135 3136 3137 3138 3139 3140 3141 3143 3144 3145 3147 3148 3149 3151 3152 3153 3154 3155 3156 3158 3159 3160 3160 3161 3162 3163 3163 3165 3166 3167 3168 3169 3169 3170 3171 3172 3172 3172 3173 3173 3173 3174 3174 3174 3175 3175 3175 3176 3176 3177 3177 3178 3178 3178 3178 3178 3178 3179 3179 3179 3179 3180 3180 3180 3180 3180 3180 3180 3180 3178 3176 3177 3177 3178 3179 3178 3178 3178 3178 3178 3178 3178 3178 3178 3178 3178 3178
3132 3133 3134 3136 3137 3138 3139 3140 3141 3142 3144 3145 3146 3148 3149 3150 3151 3152 3154 3155 3156 3157 3158 3159 3159 3160 3161 3162 3164 3165 3165 3166 3167 3168 3169 3170 3170 3171 3171 3172 3172 3172 3173 3173 3173 3174 3174 3175 3175 3176 3176 3176 3177 3177 3177 3177 3177 3177 3178 3178 3179 3178 3178 3178 3179 3179 3179 3179 3179 3179 3176 3174 3175 3177 3177 3177 3176 3176 3176 3177 3177 3176 3176 3176 3176 3176 3176 3176
3130 3131 3132 3134 3135 3136 3138 3139 3140 3141 3142 3143 3145 3146 3147 3148 3149 3150 3152 3153 3154 3155 3156 3157 3158 3158 3159 3160 3162 3163 3163 3165 3166 3167 3168 3168 3169 3170 3170 3171 3171 3171 3172 3172 3172 3173 3173 3174 3174 3175 3175 3175 3176 3176 3176 3176 3176 3176 3177 3177 3177 3177 3176 3177 3177 3177 3178 3177 3177 3178 3174 3172 3175 3175 3175 3175 3175 3175 3175 3175 3174 3174 3174 3174 3174 3174 3174 3175
3127 3129 3130 3131 3133 3134 3136 3137 3138 3139 3140 3142 3143 3144 3145 3147 3147 3149 3150 3150 3152 3153 3154 3155 3155 3156 3157 3158 3160 3161 3162 3163 3164 3165 3166 3167 3168 3168 3169 3169 3170 3170 3171 3171 3171 3171 3172 3172 3173 3173 3174 3174 3175 3175 3175 3175 3175 3175 3175 3175 3175 3175 3175 3176 3176 3176 3176 3176 3175 3176 3172 3170 3173 3173 3173 3173 3173 3173 3173 3173 3173 3173 3173 3172 3172 3172 3172 3172
3125 3126 3128 3129 3131 3132 3133 3135 3136 3137 3138 3140 3141 3142 3144 3145 3146 3147 3147 3148 3149 3150 3151 3152 3153 3154 3154 3156 3157 3158 3160 3162 3163 3164 3164 3165 3166 3167 3167 3168 3168 3169 3169 3169 3170 3170 3170 3171 3172 3172 3172 3173 3173 3173 3174 3174 3173 3174 3174 3174 3173 3174 3174 3174 3174 3174 3174 3174 3173 3173 3170 3169 3171 3171 3171 3172 3171 3171 3171 3171 3171 3171 3171 3170 3170 3170 3170 3170
3122 3124 3125 3127 3128 3130 3131 3132 3133 3135 3136 3138 3139 3140 3141 3142 3143 3144 3145 3146 3147 3148 3149 3150 3151 3151 3151 3153 3155 3157 3159 3160 3161 3161 3162 3163 3164 3165 3165 3166 3167 3167 3167 3168 3168 3169 3169 3170 3170 3170 3171 3172 3172 3172 3172 3172 3171 3172 3172 3172 3172 3172 3172 3172 3172 3172 3172 3171 3171 3170 3168 3168 3170 3170 3169 3170 3169 3169 3169 3169 3169 3168 3168 3168 3168 3167 3167 3167
3119 3121 3123 3124 3126 3127 3128 3130 3131 3132 3134 3136 3137 3138 3139 3140 3141 3142 3142 3143 3144 3146 3146 3146 3148 3149 3149 3151 3154 3156 3157 3157 3158 3159 3160 3161 3162 3163 3163 3164 3165 3165 3166 3166 3167 3167 3167 3168 3168 3169 3169 3170 3170 3170 3170 3170 3170 3170 3170 3170 3170 3170 3170 3170 3171 3171 3170 3169 3169 3167 3165 3165 3168 3168 3167 3167 3167 3166 3166 3166 3165 3165 3165 3165 3165 3165 3165 3164
3116 3118 3120 3121 3123 3124 3126 3127 3128 3130 3132 3133 3134 3135 3136 3137 3138 3138 3139 3140 3141 3142 3143 3144 3146 3146 3147 3150 3152 3153 3154 3155 3155 3156 3157 3158 3159 3160 3161 3162 3162 3163 3164 3164 3165 3165 3166 3166 3166 3166 3168 3169 3169 3169 3169 3169 3169 3168 3168 3168 3168 3168 3168 3168 3169 3169 3168 3166 3165 3164 3163 3163 3165 3165 3166 3165 3164 3162 3162 3163 3162 3162 3162 3162 3162 3162 3162 3161
3113 3115 3117 3118 3119 3121 3122 3124 3125 3127 3129 3130 3131 3132 3133 3134 3135 3135 3136 3137 3139 3140 3141 3142 3144 3144 3145 3147 3149 3150 3151 3152 3153 3154 3155 3156 3157 3158 3159 3159 3160 3161 3161 3162 3163 3163 3164 3163 3163 3165 3167 3167 3167 3167 3167 3167 3166 3166 3166 3166 3166 3166 3165 3166 3167 3167 3166 3163 3161 3161 3160 3159 3160 3161 3163 3162 3160 3159 3159 3159 3159 3159 3159 3159 3159 3159 3158 3158
3110 3112 3113 3115 3116 3117 3119 3120 3122 3124 3126 3127 3128 3129 3130 3131 3132 3132 3133 3135 3136 3137 3138 3139 3140 3140 3142 3144 3145 3147 3148 3149 3150 3152 3152 3153 3155 3155 3156 3157 3158 3159 3160 3161 3161 3161 3161 3159 3161 3164 3166 3165 3165 3165 3165 3164 3164 3164 3164 3164 3163 3163 3163 3164 3165 3164 3164 3161 3158 3159 3157 3155 3157 3157 3159 3158 3156 3155 3155 3156 3156 3156 3156 3155 3155 3155 3155 3155
3107 3109 3110 3111 3113 3114 3116 3117 3119 3121 3122 3124 3125 3126 3127 3129 3129 3130 3131 3131 3132 3133 3134 3135 3135 3136 3138 3140 3142 3144 3145 3146 3148 3149 3150 3151 3152 3153 3154 3155 3156 3157 3158 3158 3158 3159 3158 3156 3160 3164 3163 3163 3163 3163 3163 3162 3162 3162 3162 3162 3161 3161 3161 3162 3163 3162 3162 3158 3155 3156 3153 3151 3153 3153 3153 3153 3152 3152 3153 3152 3152 3152 3152 3152 3152 3152 3152 3151
3104 3106 3107 3108 3110 3111 3112 3114 3116 3118 3119 3120 3122 3123 3124 3125 3126 3127 3127 3127 3127 3129 3130 3130 3131 3133 3135 3136 3139 3141 3141 3143 3145 3146 3148 3148 3149 3151 3151 3152 3154 3155 3155 3154 3156 3156 3154 3155 3159 3161 3160 3160 3161 3161 3161 3160 3160 3160 3160 3159 3158 3160 3161 3160 3160 3160 3159 3156 3153 3152 3148 3145 3148 3147 3147 3149 3148 3149 3150 3149 3149 3148 3148 3148 3148 3148 3148 3148
3101 3103 3104 3105 3107 3108 3109 3111 3113 3115 3116 3118 3119 3121 3122 3123 3124 3124 3125 3124 3123 3124 3126 3127 3127 3128 3131 3133 3135 3137 3137 3139 3140 3142 3144 3145 3147 3149 3148 3150 3152 3151 3151 3152 3154 3153 3152 3154 3157 3157 3158 3159 3159 3158 3158 3158 3158 3158 3158 3157 3156 3158 3159 3158 3159 3158 3156 3154 3151 3150 3144 3137 3141 3142 3141 3145 3145 3145 3146 3145 3145 3145 3144 3145 3144 3144 3144 3144
3097 3099 3101 3103 3104 3105 3106 3108 3110 3112 3114 3116 3117 3118 3120 3121 3121 3122 3123 3121 3118 3119 3122 3123 3123 3124 3127 3130 3130 3132 3133 3134 3136 3138 3140 3142 3144 3145 3146 3148 3148 3147 3148 3151 3152 3149 3148 3151 3153 3154 3156 3156 3156 3155 3156 3157 3156 3156 3155 3155 3155 3156 3157 3156 3157 3156 3153 3150 3148 3150 3143 3131 3133 3138 3136 3139 3140 3140 3143 3142 3141 3142 3141 3141 3141 3141 3141 3140
3092 3094 3096 3098 3099 3101 3103 3104 3107 3110 3111 3114 3115 3116 3118 3118 3120 3120 3121 3120 3114 3112 3116 3118 3119 3120 3122 3123 3124 3129 3130 3128 3131 3135 3136 3138 3141 3142 3143 3143 3143 3144 3147 3149 3149 3145 3143 3147 3150 3151 3152 3152 3152 3151 3153 3155 3154 3153 3151 3153 3155 3154 3155 3154 3154 3154 3150 3148 3146 3148 3145 3130 3125 3130 3132 3133 3134 3135 3138 3138 3137 3139 3138 3137 3137 3137 3137 3136
3086 3089 3091 3093 3095 3096 3098 3101 3105 3106 3108 3112 3112 3114 3115 3116 3118 3118 3120 3120 3110 3106 3111 3113 3114 3114 3116 3118 3121 3126 3124 3121 3127 3131 3132 3135 3137 3138 3139 3139 3140 3141 3144 3147 3145 3139 3138 3143 3146 3147 3148 3148 3147 3148 3151 3153 3152 3149 3149 3152 3153 3152 3152 3152 3152 3151 3148 3146 3144 3145 3147 3134 3119 3120 3126 3127 3129 3130 3133 3134 3134 3135 3135 3134 3134 3133 3133 3133
3082 3084 3086 3087 3089 3092 3094 3098 3102 3103 3106 3109 3109 3111 3112 3113 3116 3116 3119 3119 3107 3100 3105 3107 3108 3110 3112 3115 3117 3120 3119 3118 3123 3126 3128 3131 3133 3134 3134 3134 3137 3138 3141 3143 3139 3135 3137 3140 3142 3144 3144 3143 3144 3147 3150 3151 3149 3147 3148 3150 3150 3150 3150 3149 3149 3148 3146 3145 3141 3141 3146 3137 3115 3113 3121 3121 3123 3126 3128 3131 3132 3132 3132 3131 3131 3131 3130 3131
3078 3080 3081 3083 3084 3087 3090 3092 3096 3100 3103 3104 3106 3107 3108 3111 3113 3114 3117 3114 3102 3097 3100 3102 3104 3105 3107 3110 3113 3115 3115 3115 3119 3122 3125 3128 3128 3130 3130 3131 3135 3136 3138 3138 3135 3134 3135 3136 3139 3140 3140 3140 3142 3145 3147 3148 3147 3146 3147 3147 3148 3148 3147 3147 3146 3146 3146 3141 3136 3138 3144 3137 3113 3106 3117 3118 3118 3122 3124 3127 3129 3129 3130 3128 3128 3128 3128 3128
3074 3075 3078 3079 3079 3081 3083 3085 3090 3095 3097 3099 3101 3103 3105 3107 3108 3111 3112 3105 3096 3094 3096 3098 3101 3101 3102 3106 3108 3110 3111 3112 3115 3119 3122 3123 3124 3126 3127 3129 3132 3132 3133 3133 3132 3131 3131 3133 3135 3135 3136 3137 3140 3142 3143 3145 3145 3145 3145 3144 3146 3146 3145 3146 3143 3145 3146 3135 3130 3134 3138 3138 3118 3102 3109 3114 3115 3119 3121 3123 3126 3127 3127 3125 3125 3125 3125 3125
3069 3071 3074 3074 3074 3076 3078 3081 3085 3089 3090 3093 3095 3097 3099 3100 3102 3103 3101 3097 3094 3091 3092 3095 3097 3097 3098 3101 3103 3105 3107 3109 3112 3115 3116 3118 3120 3121 3122 3124 3126 3128 3129 3128 3126 3126 3127 3128 3130 3130 3132 3134 3136 3138 3139 3141 3142 3142 3143 3142 3144 3144 3144 3144 3141 3144 3143 3129 3126 3131 3132 3134 3119 3101 3105 3110 3111 3116 3118 3120 3122 3123 3123 3123 3123 3123 3122 3122
3064 3067 3069 3069 3070 3072 3073 3077 3083 3084 3084 3086 3087 3088 3092 3093 3093 3092 3091 3094 3092 3085 3086 3091 3092 3093 3095 3098 3100 3103 3104 3106 3108 3110 3112 3114 3115 3115 3117 3117 3120 3123 3123 3121 3121 3122 3123 3123 3125 3127 3128 3130 3132 3134 3136 3137 3138 3139 3140 3141 3143 3144 3144 3142 3140 3141 3138 3127 3125 3128 3130 3125 3107 3098 3105 3108 3109 3113 3115 3116 3118 3120 3120 3120 3120 3119 3118 3118
3060 3063 3065 3065 3066 3068 3070 3074 3080 3079 3077 3080 3081 3083 3085 3083 3080 3081 3083 3087 3085 3080 3082 3086 3087 3090 3093 3095 3097 3100 3102 3103 3105 3107 3108 3111 3112 3112 3113 3114 3115 3117 3116 3115 3118 3120 3119 3119 3121 3122 3122 3125 3127 3129 3130 3131 3132 3133 3134 3136 3139 3142 3143 3141 3140 3139 3132 3125 3124 3127 3128 3115 3098 3098 3103 3104 3107 3110 3111 3114 3115 3116 3118 3117 3117 3116 3115 3114
3056 3058 3060 3061 3062 3065 3067 3070 3074 3075 3074 3075 3075 3076 3076 3073 3072 3074 3076 3077 3078 3078 3080 3081 3083 3088 3090 3091 3093 3095 3098 3099 3101 3103 3104 3106 3107 3107 3108 3109 3111 3112 3113 3115 3115 3116 3116 3114 3114 3116 3118 3120 3121 3123 3125 3126 3129 3129 3130 3132 3132 3133 3135 3135 3135 3132 3126 3124 3123 3125 3122 3107 3096 3098 3100 3101 3105 3107 3108 3111 3112 3113 3114 3114 3114 3113 3112 3111
3051 3053 3054 3056 3057 3060 3062 3064 3069 3071 3070 3069 3069 3067 3066 3066 3067 3068 3068 3070 3075 3076 3077 3079 3082 3085 3086 3088 3089 3092 3094 3095 3097 3099 3099 3100 3101 3101 3102 3104 3105 3108 3110 3112 3111 3111 3112 3109 3109 3113 3114 3115 3117 3120 3122 3124 3126 3126 3127 3128 3126 3126 3129 3130 3129 3126 3125 3125 3121 3118 3110 3098 3095 3097 3097 3101 3102 3103 3107 3107 3108 3110 3110 3111 3111 3109 3109 3107
3046 3047 3049 3050 3052 3055 3058 3059 3064 3066 3065 3064 3061 3057 3056 3058 3060 3061 3062 3066 3071 3073 3075 3077 3079 3081 3082 3084 3085 3087 3089 3091 3092 3094 3095 3096 3096 3096 3098 3099 3101 3102 3103 3105 3106 3107 3108 3105 3106 3110 3110 3112 3114 3116 3119 3120 3121 3121 3121 3121 3121 3125 3128 3128 3126 3123 3126 3125 3114 3108 3101 3095 3096 3093 3091 3097 3098 3099 3104 3103 3104 3107 3106 3107 3107 3105 3105 3104
3041 3042 3043 3044 3047 3052 3054 3056 3059 3060 3059 3057 3052 3048 3050 3052 3054 3057 3059 3062 3066 3069 3072 3073 3075 3077 3078 3078 3080 3082 3084 3086 3088 3089 3090 3092 3091 3090 3092 3094 3096 3098 3099 3102 3103 3104 3105 3103 3103 3106 3107 3109 3111 3112 3114 3115 3115 3115 3115 3117 3121 3125 3125 3126 3126 3124 3126 3124 3110 3101 3097 3094 3095 3089 3085 3092 3095 3096 3099 3100 3102 3103 3103 3103 3103 3102 3102 3100
3036 3037 3038 3040 3044 3047 3050 3052 3054 3055 3053 3049 3045 3045 3047 3047 3051 3055 3057 3059 3063 3065 3067 3068 3070 3072 3073 3073 3075 3077 3080 3081 3083 3084 3086 3087 3085 3084 3087 3090 3092 3095 3097 3100 3101 3102 3103 3101 3101 3103 3104 3105 3107 3109 3109 3109 3111 3111 3113 3116 3119 3120 3119 3121 3124 3121 3122 3122 3110 3099 3096 3091 3088 3084 3083 3088 3091 3092 3095 3096 3098 3099 3100 3101 3100 3100 3099 3097
3032 3032 3031 3035 3040 3042 3045 3047 3048 3049 3045 3040 3039 3040 3040 3041 3046 3052 3054 3056 3059 3061 3061 3062 3065 3068 3068 3069 3071 3074 3076 3076 3077 3079 3080 3082 3080 3079 3082 3086 3088 3091 3094 3097 3097 3098 3100 3100 3098 3097 3099 3102 3103 3103 3102 3103 3107 3110 3112 3114 3114 3114 3114 3114 3117 3115 3115 3118 3111 3103 3096 3084 3078 3080 3082 3084 3086 3088 3091 3093 3095 3096 3097 3098 3098 3097 3097 3096
3027 3026 3025 3030 3036 3038 3042 3044 3042 3040 3036 3033 3034 3035 3035 3037 3041 3046 3050 3052 3053 3055 3056 3058 3062 3064 3064 3066 3068 3070 3072 3072 3073 3075 3075 3076 3076 3075 3078 3081 3085 3088 3091 3093 3094 3095 3097 3096 3094 3093 3095 3097 3095 3095 3096 3098 3102 3105 3106 3107 3107 3109 3111 3111 3112 3111 3111 3114 3112 3108 3096 3077 3074 3080 3081 3082 3084 3086 3089 3090 3092 3094 3094 3095 3095 3095 3095 3094
3022 3020 3019 3025 3032 3034 3037 3037 3034 3033 3031 3029 3030 3031 3033 3035 3037 3041 3045 3047 3048 3050 3052 3054 3057 3059 3060 3061 3064 3066 3068 3069 3069 3071 3071 3072 3072 3071 3073 3077 3081 3085 3087 3088 3088 3089 3090 3089 3090 3089 3088 3088 3088 3091 3094 3096 3098 3099 3099 3099 3099 3102 3105 3107 3108 3106 3107 3108 3106 3107 3095 3072 3070 3080 3079 3080 3084 3085 3087 3088 3089 3091 3092 3092 3093 3093 3093 3092
3016 3014 3015 3020 3025 3029 3032 3029 3027 3028 3026 3025 3027 3028 3029 3031 3033 3036 3040 3043 3045 3046 3048 3050 3052 3054 3055 3056 3058 3061 3064 3064 3065 3066 3066 3067 3067 3068 3071 3075 3078 3080 3081 3082 3082 3083 3085 3085 3086 3084 3083 3084 3087 3090 3092 3093 3095 3095 3095 3094 3095 3098 3098 3100 3101 3099 3103 3103 3100 3104 3096 3071 3067 3077 3077 3078 3082 3084 3085 3086 3087 3089 3089 3090 3090 3090 3090 3090
3010 3010 3012 3015 3019 3024 3026 3022 3022 3023 3020 3021 3025 3025 3025 3028 3030 3032 3035 3038 3040 3042 3043 3045 3047 3049 3051 3052 3054 3057 3059 3060 3060 3062 3063 3064 3064 3067 3070 3072 3073 3075 3077 3077 3078 3080 3081 3081 3082 3081 3081 3083 3085 3086 3087 3089 3090 3089 3088 3089 3091 3093 3093 3095 3097 3095 3098 3097 3094 3101 3094 3069 3064 3073 3075 3076 3079 3081 3083 3084 3084 3086 3086 3086 3087 3087 3087 3086
3006 3007 3008 3010 3014 3017 3017 3015 3016 3016 3016 3019 3020 3020 3022 3024 3025 3027 3030 3032 3034 3037 3039 3040 3042 3045 3047 3048 3050 3052 3054 3056 3056 3057 3059 3059 3060 3064 3066 3067 3068 3070 3071 3072 3073 3075 3074 3074 3076 3079 3080 3081 3082 3082 3081 3081 3081 3081 3082 3085 3086 3088 3092 3094 3094 3094 3093 3087 3088 3094 3084 3064 3064 3071 3072 3074 3076 3077 3080 3081 3082 3083 3083 3083 3084 3083 3084 3083
3003 3002 3003 3006 3008 3008 3007 3009 3012 3012 3013 3016 3015 3016 3018 3019 3019 3022 3026 3028 3030 3033 3035 3036 3038 3041 3043 3045 3046 3047 3049 3051 3052 3052 3053 3054 3056 3059 3061 3061 3062 3064 3066 3068 3069 3070 3069 3068 3070 3072 3072 3071 3070 3068 3066 3067 3072 3075 3076 3079 3080 3083 3087 3087 3089 3091 3086 3079 3082 3083 3070 3060 3066 3070 3068 3071 3073 3074 3077 3078 3079 3080 3080 3080 3080 3080 3080 3079
2998 2997 2998 3000 3002 3001 3000 3004 3008 3008 3009 3011 3011 3011 3013 3014 3015 3019 3021 3024 3026 3029 3031 3031 3034 3037 3038 3040 3042 3043 3044 3047 3048 3048 3048 3050 3052 3054 3056 3057 3058 3060 3062 3063 3063 3064 3064 3062 3063 3063 3061 3059 3057 3057 3059 3062 3067 3069 3069 3072 3075 3077 3080 3082 3084 3082 3076 3076 3076 3069 3063 3062 3064 3065 3067 3068 3070 3072 3074 3075 3076 3076 3077 3077 3077 3077 3077 3076
2992 2991 2992 2996 2996 2995 2995 2997 2999 3000 3003 3006 3005 3005 3007 3009 3012 3014 3015 3018 3021 3024 3025 3026 3028 3031 3032 3034 3036 3037 3039 3041 3042 3043 3044 3046 3048 3050 3052 3053 3052 3054 3057 3057 3057 3057 3056 3055 3056 3056 3055 3055 3057 3058 3060 3061 3062 3064 3065 3068 3069 3071 3075 3077 3075 3071 3071 3075 3068 3057 3062 3065 3056 3057 3065 3066 3067 3070 3070 3071 3073 3072 3073 3074 3073 3073 3073 3073
2985 2985 2988 2990 2990 2989 2989 2990 2992 2994 2997 2999 2999 3000 3002 3003 3006 3007 3008 3013 3016 3018 3020 3021 3022 3024 3026 3029 3031 3031 3033 3036 3036 3038 3039 3042 3043 3045 3047 3048 3047 3049 3051 3051 3050 3050 3049 3049 3051 3052 3052 3053 3055 3057 3057 3058 3059 3060 3062 3064 3065 3067 3068 3067 3064 3064 3067 3069 3059 3053 3063 3063 3050 3052 3062 3064 3065 3067 3066 3067 3068 3067 3068 3069 3068 3069 3069 3069
2979 2979 2983 2985 2983 2983 2985 2986 2989 2990 2991 2994 2995 2995 2997 2997 2999 3001 3004 3007 3009 3011 3014 3015 3016 3019 3021 3023 3026 3026 3027 3029 3030 3031 3033 3036 3038 3040 3041 3042 3042 3044 3046 3045 3045 3046 3045 3045 3047 3049 3049 3050 3051 3053 3054 3054 3055 3056 3057 3059 3061 3061 3060 3058 3058 3061 3062 3062 3057 3056 3061 3058 3048 3049 3057 3060 3062 3063 3062 3062 3063 3063 3064 3063 3063 3063 3063 3064
2973 2974 2978 2979 2978 2979 2981 2983 2984 2984 2985 2988 2988 2988 2991 2992 2992 2996 2998 2999 3000 3004 3007 3008 3010 3014 3016 3018 3020 3020 3022 3024 3025 3026 3028 3031 3032 3033 3034 3035 3036 3038 3039 3039 3040 3041 3041 3041 3043 3045 3046 3046 3046 3048 3049 3050 3051 3051 3052 3054 3054 3052 3052 3052 3053 3057 3058 3057 3055 3057 3058 3050 3042 3045 3053 3056 3057 3057 3057 3058 3058 3058 3059 3058 3058 3058 3058 3059
2969 2971 2973 2974 2972 2973 2976 2978 2980 2979 2979 2981 2981 2983 2986 2986 2987 2992 2992 2991 2994 2997 3000 3003 3007 3011 3012 3013 3014 3015 3018 3020 3021 3022 3024 3026 3027 3028 3029 3031 3032 3033 3033 3034 3036 3036 3037 3038 3039 3041 3043 3040 3040 3043 3045 3046 3047 3047 3046 3045 3043 3041 3043 3046 3048 3051 3052 3051 3052 3055 3051 3040 3036 3044 3051 3050 3051 3052 3051 3052 3053 3053 3053 3053 3052 3052 3053 3053
2964 2966 2968 2969 2967 2967 2970 2972 2975 2975 2974 2975 2978 2980 2981 2981 2985 2988 2988 2988 2990 2993 2996 3000 3004 3007 3007 3006 3008 3011 3015 3017 3018 3019 3020 3021 3023 3025 3026 3028 3029 3029 3030 3031 3032 3032 3033 3034 3035 3037 3037 3035 3036 3038 3041 3043 3043 3040 3035 3032 3031 3035 3039 3041 3043 3044 3045 3047 3048 3046 3039 3034 3038 3045 3045 3043 3045 3045 3045 3047 3048 3047 3047 3047 3046 3046 3047 3047